Starlink 5383

operational
NORAD ID: 54827 Int'l Des: 2022-177 Owner: SPXS Country: US Constellation: starlink
LEOCIRCULAR

About Starlink 5383

Description loading...

Live Position

Loading 3D Globe...

Upcoming Passes

Altitude History

Altitude vs Time

uPlot chart will show altitude changes over time

Two-Line Element Set

1 54827U 22177H 25347.12215535 -.00001176 00000-0 -72034-4 0 9997
2 54827 43.0028 243.6866 0001188 262.2841 97.7867 15.02531799163942
Epoch: Dec 13, 2025 • Age: 16 hours

Current Status

Altitude 558.8 km
Velocity 7.58 km/s
Sub-Earth Point 1.74°N, 124.24°W
Launch Date Dec 28, 2022
Age 2.9 years
Type internet

Technical Details

Classification Payload
Mass 305.00 kg
Dry Mass 290.00 kg
Total Mass 305.00 kg
Length 0.20 m
Diameter 2.80 m
Span 9.00 m
Shape Box + pan
Manufacturer SPXS
Bus Type Starlink
Phase Status In Orbit
Owner/State SPXS/US

Large Constellations

Loading constellations...